Regional Weather Roundup
Issued by NWS Green Bay, WI

Home | Current Version | Previous Version | Text Only | Print | Product List | Glossary On
Versions: 1 2 3 4 5 6 7 8 9 10 11 12 13 14 15 16 17 18 19 20 21 22 23 24 25 26 27 28 29 30 31 32 33 34 35 36 37 38 39 40 41 42 43 44 45 46 47 48 49 50
000
ASUS43 KGRB 260210
RWRGRB

NORTH-CENTRAL AND NORTHEAST WISCONSIN REGIONAL WEATHER ROUNDUP
NATIONAL WEATHER SERVICE GREEN BAY WI
800 PM CST TUE NOV 25 2014

WIZ005-009-010>012-018-019-260300-
NORTH CENTRAL WISCONSIN

CITY           SKY/WX    TMP DP  RH WIND       PRES   REMARKS
IRONWOOD       PTCLDY     3   3 100 CALM      30.01R
MANITOWISH WTR PTCLDY     4   1  88 CALM      30.01R
ARBOR VITAE    PTCLDY     8   5  87 CALM      30.01S
EAGLE RIVER    NOT AVBL
LAND O LAKES   CLEAR      0  -4  85 CALM      30.02R
RHINELANDER    CLEAR      7   3  84 CALM      30.02S FOG
PHILLIPS       MOCLDY     8   6  92 CALM      30.02R
ANTIGO         FOG        0  -3  85 CALM      30.04S VSB 1/2
TOMAHAWK         N/A      6   3  89 CALM      30.04R
MERRILL        CLEAR      8   6  91 CALM      30.04F
$$

WIZ013-073-260300-
NORTHEAST WISCONSIN

CITY           SKY/WX    TMP DP  RH WIND       PRES   REMARKS
IRON MOUNTAIN  CLEAR      5   2  87 CALM      30.04S
MARINETTE      CLEAR     19  16  86 W5        30.10R
OCONTO         CLOUDY    20  17  86 W6        30.11S
$$

WIZ017-030-035>037-045-260300-
CENTRAL WISCONSIN

CITY           SKY/WX    TMP DP  RH WIND       PRES   REMARKS
MEDFORD        CLOUDY    17  13  84 S3        30.03R
WAUSAU         CLEAR     13  10  88 E3        30.04F
MOSINEE        CLEAR     10  10 100 CALM      30.06S
MARSHFIELD     CLOUDY    20  14  77 CALM      30.04F
WISC RAPIDS    CLOUDY    17  13  84 S3        30.09S
STEVENS POINT  CLEAR      8   6  91 CALM      30.08S
WAUPACA        CLEAR     14  11  87 CALM      30.11S
SHAWANO        CLEAR     18  15  89 CALM      30.10S
CLINTONVILLE   CLEAR      9   5  85 CALM      30.10S FOG
$$

WIZ038-039-048-051-260300-
FOX VALLEY

CITY           SKY/WX    TMP DP  RH WIND       PRES   REMARKS
NWS GREEN BAY  CLOUDY    21  15  78 SW3       30.12S
APPLETON       PTCLDY    18  16  93 VRB3      30.11S
OSHKOSH        CLOUDY    19  14  81 CALM      30.12S
FOND DU LAC    CLOUDY    20  14  77 S3        30.12S
$$

WIZ022-050-052-260300-
EAST CENTRAL WISCONSIN

CITY           SKY/WX    TMP DP  RH WIND       PRES   REMARKS
STURGEON BAY   CLOUDY    23  16  74 SW6       30.11R
MANITOWOC      CLOUDY    22  18  85 W5        30.14R
SHEBOYGAN      CLOUDY    20  15  81 W6        30.13S
$$

LMZ563-521-522-541>543-260300-
LAKESHORE

STATION/POSITION TIME  TEMP    WIND        PRES    VSBY  WAVE
                       AIR SEA DIR/SP/G                  HT/PER
                 (UTC) (F)     (DEG/KT/KT) (MB)    (MI)  (FT/S)
SHEBOYGAN LKSHOR 0200   21 36  240/  6/  7 1022.1R
KEWAUNEE LKSHORE 0200   21     250/  8/ 11 1019.3S
ALGOMA MARINA    0100          300/  2/  5   N/A
TWO RIVERS CG    0100   21                 1020.2
NORTHPORT PIER   0200   26      CALM  /  2 1019.3R
N MID LAKE BUOY  0200   28 42  270/  8/ 12 1020.0R         1/ 3
SISTER BAY LKSHO 0100             CALM       N/A
CHAMBERS ISLAND  0200   25     230/  5/ 12 1019.6S
MENOMINEE LKSHOR 0200   22     230/  6/ 10 1020.1S
$$


USA.gov is the U.S. government's official web portal to all federal, state and local government web resources and services.